Location: St Paul
(33.4390°N, 83.7350°W)
Time: 04:56:40
(UTC-05:00)

Delta 142 - Pass Details

Date: 06 October 2017
Orbit: 548 x 1589 km, 28.4° (Epoch: 13 December)

Event Time Altitude Azimuth Distance (km) Brightness Sun altitude
Rises 19:54:52 0° 256° (WSW) 2,869 8.8 -9.7°
Reaches altitude 10° 19:57:02 10° 251° (WSW) 2,052 7.5 -10.1°
Maximum altitude 20:01:38 50° 175° (S) 957 4.5 -11.1°
Enters shadow 20:06:23 15° 105° (ESE) 2,205 5.7 -12.1°
